EN

Hourly Weather Alvena

Today, 18 January, Monday

Time Temperature Precipitation Wind Pressure Humidity
00:00 -19°C° 0 mm 3 mps 715 mmHg 97%
01:00 -19°C° 0 mm 2 mps 716 mmHg 97%
02:00 -20°C° 0 mm 2 mps 717 mmHg 98%
03:00 -21°C° 0 mm 2 mps 717 mmHg 98%
04:00 -19°C° 0 mm 1 mps 717 mmHg 99%
05:00 -20°C° 0 mm 0 mps 717 mmHg 99%
06:00 -18°C° 0 mm 1 mps 717 mmHg 98%
07:00 -19°C° 0 mm 2 mps 717 mmHg 98%
08:00 -19°C° 0 mm 3 mps 718 mmHg 97%
09:00 -17°C° 0.1 mm 3 mps 717 mmHg 96%
10:00 -15°C° 0.1 mm 3 mps 717 mmHg 96%
11:00 -12°C° 0.1 mm 3 mps 716 mmHg 95%
12:00 -10°C° 0.2 mm 4 mps 716 mmHg 95%
13:00 -8°C° 0.2 mm 4 mps 716 mmHg 95%
14:00 -6°C° 0.2 mm 5 mps 716 mmHg 94%
15:00 -5°C° 0.1 mm 4 mps 717 mmHg 94%
16:00 -7°C° 0.1 mm 4 mps 717 mmHg 93%
17:00 -7°C° 0.1 mm 4 mps 717 mmHg 93%
18:00 -8°C° 0.1 mm 5 mps 718 mmHg 93%
19:00 -10°C° 0.1 mm 5 mps 719 mmHg 92%
20:00 -11°C° 0.1 mm 5 mps 720 mmHg 92%
21:00 -12°C° 0 mm 5 mps 720 mmHg 92%
22:00 -12°C° 0 mm 4 mps 721 mmHg 93%
23:00 -15°C° 0 mm 4 mps 721 mmHg 94%

Tomorrow, 19 January, Tuesday

Time Temperature Precipitation Wind Pressure Humidity
00:00 -15°C° 0 mm 3 mps 722 mmHg 95%
01:00 -16°C° 0 mm 3 mps 722 mmHg 96%
02:00 -17°C° 0 mm 2 mps 722 mmHg 97%
03:00 -18°C° 0 mm 2 mps 722 mmHg 97%
04:00 -16°C° 0 mm 1 mps 722 mmHg 98%
05:00 -17°C° 0 mm 1 mps 722 mmHg 98%
06:00 -17°C° 0 mm 1 mps 722 mmHg 98%
07:00 -17°C° 0 mm 1 mps 722 mmHg 98%
08:00 -17°C° 0 mm 1 mps 721 mmHg 97%
09:00 -18°C° 0 mm 2 mps 721 mmHg 96%
10:00 -17°C° 0 mm 2 mps 720 mmHg 96%
11:00 -16°C° 0 mm 3 mps 719 mmHg 95%
12:00 -16°C° 0 mm 4 mps 718 mmHg 95%
13:00 -15°C° 0 mm 4 mps 716 mmHg 95%
14:00 -14°C° 0 mm 5 mps 715 mmHg 95%
15:00 -13°C° 0 mm 5 mps 713 mmHg 93%
16:00 -12°C° 0 mm 6 mps 711 mmHg 91%
17:00 -11°C° 0 mm 6 mps 710 mmHg 89%
18:00 -10°C° 0.1 mm 6 mps 708 mmHg 88%
19:00 -8°C° 0.1 mm 6 mps 707 mmHg 88%
20:00 -6°C° 0.1 mm 6 mps 706 mmHg 87%
21:00 -6°C° 0.6 mm 6 mps 705 mmHg 90%
22:00 -6°C° 0.6 mm 7 mps 703 mmHg 92%
23:00 -6°C° 0.6 mm 7 mps 702 mmHg 95%

Day after tomorrow, 20 January, Wednesday

Time Temperature Precipitation Wind Pressure Humidity
00:00 -6°C° 0.1 mm 8 mps 702 mmHg 88%
01:00 -5°C° 0.1 mm 8 mps 703 mmHg 81%
02:00 -5°C° 0.1 mm 9 mps 703 mmHg 74%
03:00 -6°C° 0 mm 9 mps 703 mmHg 74%
04:00 -7°C° 0 mm 8 mps 703 mmHg 74%
05:00 -8°C° 0 mm 7 mps 703 mmHg 75%
06:00 -8°C° 0 mm 7 mps 703 mmHg 76%
07:00 -9°C° 0 mm 7 mps 703 mmHg 77%
08:00 -9°C° 0 mm 7 mps 703 mmHg 78%
09:00 -8°C° 0 mm 7 mps 703 mmHg 79%
10:00 -7°C° 0 mm 8 mps 704 mmHg 80%
11:00 -6°C° 0 mm 8 mps 704 mmHg 82%
12:00 -6°C° 0 mm 8 mps 704 mmHg 82%
13:00 -6°C° 0 mm 8 mps 704 mmHg 83%
14:00 -6°C° 0 mm 8 mps 704 mmHg 83%
15:00 -7°C° 0.1 mm 8 mps 705 mmHg 86%
16:00 -8°C° 0.1 mm 9 mps 705 mmHg 88%
17:00 -8°C° 0.1 mm 9 mps 706 mmHg 91%
18:00 -11°C° 0 mm 8 mps 707 mmHg 88%
19:00 -13°C° 0 mm 8 mps 709 mmHg 86%
20:00 -15°C° 0 mm 7 mps 710 mmHg 83%
21:00 -17°C° 0 mm 7 mps 711 mmHg 85%
22:00 -17°C° 0 mm 6 mps 713 mmHg 87%
23:00 -18°C° 0 mm 6 mps 714 mmHg 90%

21 January, Thursday

Time Temperature Precipitation Wind Pressure Humidity
00:00 -19°C° 0 mm 5 mps 715 mmHg 91%
01:00 -19°C° 0 mm 4 mps 716 mmHg 93%
02:00 -19°C° 0 mm 3 mps 716 mmHg 94%
03:00 -21°C° 0 mm 3 mps 717 mmHg 95%
04:00 -21°C° 0 mm 3 mps 718 mmHg 96%
05:00 -20°C° 0 mm 2 mps 718 mmHg 97%
06:00 -20°C° 0 mm 2 mps 719 mmHg 97%
07:00 -19°C° 0 mm 2 mps 719 mmHg 97%
08:00 -19°C° 0 mm 2 mps 720 mmHg 97%
09:00 -18°C° 0 mm 2 mps 720 mmHg 95%
10:00 -17°C° 0 mm 2 mps 720 mmHg 94%
11:00 -18°C° 0 mm 3 mps 721 mmHg 93%
12:00 -17°C° 0 mm 3 mps 721 mmHg 93%
13:00 -17°C° 0 mm 3 mps 721 mmHg 92%
14:00 -17°C° 0 mm 3 mps 720 mmHg 92%
15:00 -18°C° 0 mm 3 mps 720 mmHg 94%
16:00 -19°C° 0 mm 3 mps 721 mmHg 95%
17:00 -21°C° 0 mm 3 mps 721 mmHg 96%
18:00 -22°C° 0 mm 3 mps 721 mmHg 96%
19:00 -22°C° 0 mm 3 mps 721 mmHg 96%
20:00 -23°C° 0 mm 3 mps 721 mmHg 96%
21:00 -23°C° 0 mm 3 mps 721 mmHg 96%
22:00 -23°C° 0 mm 3 mps 721 mmHg 96%
23:00 -23°C° 0 mm 2 mps 721 mmHg 96%

22 January, Friday

Time Temperature Precipitation Wind Pressure Humidity
00:00 -24°C° 0 mm 3 mps 721 mmHg 96%
01:00 -25°C° 0 mm 3 mps 720 mmHg 96%
02:00 -25°C° 0 mm 3 mps 720 mmHg 96%
03:00 -25°C° 0 mm 3 mps 720 mmHg 96%
04:00 -25°C° 0 mm 3 mps 720 mmHg 96%
05:00 -25°C° 0 mm 3 mps 721 mmHg 96%
06:00 -26°C° 0 mm 3 mps 721 mmHg 96%
07:00 -27°C° 0 mm 3 mps 721 mmHg 96%
08:00 -27°C° 0 mm 3 mps 721 mmHg 96%
09:00 -25°C° 0 mm 2 mps 721 mmHg 95%
10:00 -24°C° 0 mm 2 mps 722 mmHg 95%
11:00 -23°C° 0 mm 2 mps 722 mmHg 94%
12:00 -23°C° 0 mm 2 mps 722 mmHg 94%
13:00 -21°C° 0 mm 2 mps 722 mmHg 94%
14:00 -21°C° 0 mm 2 mps 722 mmHg 94%
15:00 -23°C° 0 mm 2 mps 722 mmHg 94%
16:00 -24°C° 0 mm 2 mps 722 mmHg 94%
17:00 -25°C° 0 mm 2 mps 722 mmHg 95%
18:00 -21°C° 0 mm 1 mps 722 mmHg 96%
19:00 -21°C° 0 mm 1 mps 722 mmHg 97%
20:00 -21°C° 0 mm 1 mps 723 mmHg 98%
21:00 -25°C° 0 mm 2 mps 723 mmHg 97%
22:00 -26°C° 0 mm 2 mps 723 mmHg 97%
23:00 -29°C° 0 mm 3 mps 723 mmHg 97%

23 January, Saturday

Time Temperature Precipitation Wind Pressure Humidity
00:00 -31°C° 0 mm 3 mps 723 mmHg 96%
01:00 -32°C° 0 mm 3 mps 723 mmHg 95%
02:00 -34°C° 0 mm 3 mps 723 mmHg 93%
03:00 -34°C° 0 mm 2 mps 724 mmHg 94%
04:00 -35°C° 0 mm 2 mps 724 mmHg 94%
05:00 -36°C° 0 mm 2 mps 724 mmHg 95%
06:00 -36°C° 0 mm 2 mps 724 mmHg 95%
07:00 -36°C° 0 mm 2 mps 724 mmHg 94%
08:00 -36°C° 0 mm 2 mps 724 mmHg 94%
09:00 -35°C° 0 mm 3 mps 725 mmHg 94%
10:00 -34°C° 0 mm 3 mps 725 mmHg 93%
11:00 -33°C° 0 mm 3 mps 725 mmHg 93%
12:00 -32°C° 0 mm 3 mps 725 mmHg 93%
13:00 -32°C° 0 mm 3 mps 725 mmHg 93%
14:00 -31°C° 0 mm 3 mps 724 mmHg 94%
15:00 -32°C° 0 mm 3 mps 724 mmHg 94%
16:00 -33°C° 0 mm 3 mps 724 mmHg 95%
17:00 -34°C° 0 mm 3 mps 724 mmHg 95%
18:00 -32°C° 0 mm 2 mps 724 mmHg 95%
19:00 -32°C° 0 mm 2 mps 724 mmHg 95%
20:00 -34°C° 0 mm 2 mps 724 mmHg 95%
21:00 -34°C° 0 mm 2 mps 724 mmHg 95%
22:00 -34°C° 0 mm 2 mps 724 mmHg 95%
23:00 -34°C° 0 mm 2 mps 724 mmHg 95%
Show more